Location: Taupo
(38.6830°S, 176.0830°E)
Time: 10:25:39
(UTC+13:00)

Helios 1B rocket - Pass Details

Date: 24 January 2019
Orbit: 575 x 586 km, 98.2° (Epoch: 19 February)

Event Time Altitude Azimuth Distance (km) Brightness Sun altitude
Exits shadow 23:00:56 80° 31° (NNE) 598 2.3 -22.7°
Maximum altitude 23:01:09 87° 104° (ESE) 591 2.3 -22.7°
Drops below altitude 10° 23:05:20 10° 192° (SSW) 1,923 6.0 -23.2°
Sets 23:07:30 0° 192° (SSW) 2,833 7.0 -23.4°
